Torna al catalogo

STARLINK-34184

AttivoComunicazioniVLEO
NORAD 64024·PAYLOAD·🇺🇸 United States

Lanciato May 16, 2025 da Vandenberg Space Force Base

Loading…

Prossimi Passaggi (prossime 24 ore)

TLE

AggiornatoSource: CelesTrak SupGP

Epoca: Sep 15, 2026, 03:16 UTC

1 64024C 25102C   26258.13659722 -.00080622  00000+0 -28029-2 0  2584
2 64024  70.0013 354.9095 0003486 269.8950 201.0785 15.29637955    10

Traccia STARLINK-34184 in tempo reale con AllMySat

Download on the App Store